Home > Weather > Binghamton > Past weeks

Flag for USA Past Weather in Binghamton, New York, USA — Yesterday and Last 2 Weeks

Now
71 °F

Sunny.


Feels Like: 75 °F
Forecast: 58 / 80 °F
Wind: 13 mph from West

Location: Binghamton Regional Airport

Current Time: Jul 1, 2016 at 4:50:37 PM

Latest Report: Jul 1, 2016 at 3:53 PM


Visibility: 10 mi

Pressure: 29.85 "Hg

Humidity: 68%

Dew Point: 60 °F

Location of BinghamtonLocation

Past Weather in Binghamton — Graph

°F

Binghamton Temperature Yesterday

Maximum temperature yesterday: 75 °F (at 2:53 PM)
Minimum temperature yesterday: 53 °F (at 5:53 AM)
Average temperature yesterday: 66 °F

High & Low Weather Summary for the Past Weeks

 TemperatureHumidityPressure
High85 °F (Jun 19, 3:53 PM)100% (Jun 28, 1:53 AM)30.33 "Hg (Jun 28, 1:53 AM)
Low53 °F (Jun 24, 2:53 AM)25% (Jun 24, 6:53 PM)29.75 "Hg (Jun 16, 4:53 PM)
Average68 °F61%30.02 "Hg
* Reported Jun 16 3:53 PM — Jul 1 3:53 PM, Binghamton, Weather by CustomWeather, © 2016

Note: Actual official high and low records may vary slightly from our data, if they occured in-between our weather recording intervals... More about our weather records

Advertising

Binghamton Weather History for the Previous 24 Hours

Scroll right to see more
 ConditionsComfort  
Time TempWeatherWind HumidityBarometerVisibility
3:53 PM
Fri, Jul 1
71 °FSunny.13 mph68%29.85 "Hg10 mi
2:53 PM72 °FBroken clouds.12 mph73%29.87 "Hg10 mi
1:53 PM68 °FLight rain. Cloudy.10 mph87%29.88 "Hg10 mi
1:00 PM73 °FCloudy.12 mph69%29.92 "Hg10 mi
11:53 AM73 °FBroken clouds.16 mph69%29.91 "Hg10 mi
10:53 AM71 °FPassing clouds.9 mph68%29.92 "Hg10 mi
9:53 AM69 °FPassing clouds.8 mph70%29.93 "Hg10 mi
8:53 AM65 °FPassing clouds.6 mph73%29.96 "Hg10 mi
7:53 AM60 °FPassing clouds.7 mph80%29.97 "Hg10 mi
6:53 AM58 °FPassing clouds.5 mph84%29.98 "Hg10 mi
5:53 AM58 °FPassing clouds.3 mph81%29.98 "Hg10 mi
4:53 AM58 °FClear.5 mph78%29.98 "Hg10 mi
3:53 AM60 °FPassing clouds.3 mph72%29.98 "Hg10 mi
2:53 AM63 °FPassing clouds.5 mph65%29.98 "Hg10 mi
1:53 AM62 °FPassing clouds.5 mph67%30.00 "Hg10 mi
12:53 AM63 °FPassing clouds.5 mph63%30.01 "Hg10 mi
11:53 PM
Thu, Jun 30
62 °FClear.3 mph67%30.01 "Hg10 mi
10:53 PM68 °FClear.3 mph53%30.01 "Hg10 mi
9:53 PM70 °FPassing clouds.3 mph44%30.02 "Hg10 mi
8:53 PM70 °FSunny.3 mph46%30.01 "Hg10 mi
7:53 PM70 °FSunny.3 mph47%30.01 "Hg10 mi
6:53 PM74 °FSunny.8 mph43%30.01 "Hg10 mi
5:53 PM75 °FSunny.7 mph39%30.01 "Hg10 mi
4:53 PM75 °FSunny.6 mph39%30.02 "Hg10 mi
Weather by CustomWeather, © 2016

See weather overviewHow to use our weather pages